TimeAWST,TemperatureF,Dew PointF,Humidity,Sea Level PressureIn,VisibilityMPH,Wind Direction,Wind SpeedMPH,Gust SpeedMPH,PrecipitationIn,Events,Conditions,WindDirDegrees,DateUTC
12:00 AM,53,41,54,30.07,19,ENE,10.4,,,,Partly Cloudy,70,2013-06-12 16:00:00
12:00 AM,53.6,41.0,62,30.06,-9999.0,ENE,10.4,-,N/A,,Clear,70,2013-06-12 16:00:00
12:30 AM,53.6,41.0,62,30.06,-9999.0,ENE,11.5,-,N/A,,Clear,60,2013-06-12 16:30:00
1:00 AM,51.8,41.0,67,30.06,-9999.0,ENE,10.4,-,N/A,,Clear,70,2013-06-12 17:00:00
1:30 AM,51.8,41.0,67,30.06,-9999.0,NE,10.4,-,N/A,,Clear,50,2013-06-12 17:30:00
2:00 AM,52,41,57,30.07,,NE,11.5,,,,,50,2013-06-12 18:00:00
2:00 AM,51.8,41.0,67,30.06,-9999.0,NE,11.5,-,N/A,,Clear,50,2013-06-12 18:00:00
2:30 AM,51.8,41.0,67,30.06,-9999.0,NE,9.2,-,N/A,,Clear,50,2013-06-12 18:30:00
3:00 AM,51,41,60,30.06,19,ENE,10.4,,,,Partly Cloudy,60,2013-06-12 19:00:00
3:00 AM,50.0,41.0,71,30.04,-9999.0,ENE,10.4,-,N/A,,Clear,60,2013-06-12 19:00:00
3:30 AM,48.2,41.0,76,30.04,-9999.0,ENE,8.1,-,N/A,,Clear,70,2013-06-12 19:30:00
4:00 AM,48.2,41.0,76,30.04,-9999.0,ENE,9.2,-,N/A,,Clear,70,2013-06-12 20:00:00
4:30 AM,48.2,41.0,76,30.04,-9999.0,ENE,11.5,-,N/A,,Clear,70,2013-06-12 20:30:00
5:00 AM,48,40,67,30.05,,ENE,11.5,,,,,70,2013-06-12 21:00:00
5:00 AM,48.2,41.0,76,30.04,-9999.0,ENE,11.5,-,N/A,,Clear,70,2013-06-12 21:00:00
5:30 AM,48.2,41.0,76,30.04,-9999.0,ENE,12.7,-,N/A,,Clear,70,2013-06-12 21:30:00
6:00 AM,48,40,66,30.06,19,ENE,13.8,,,,Partly Cloudy,60,2013-06-12 22:00:00
6:00 AM,48.2,41.0,76,30.04,-9999.0,ENE,13.8,-,N/A,,Clear,60,2013-06-12 22:00:00
6:30 AM,48.2,41.0,76,30.06,-9999.0,NE,12.7,-,N/A,,Clear,50,2013-06-12 22:30:00
7:00 AM,48.2,39.2,71,30.06,-9999.0,ENE,12.7,-,N/A,,Clear,60,2013-06-12 23:00:00
7:30 AM,48.2,39.2,71,30.06,-9999.0,ENE,16.1,-,N/A,,Clear,70,2013-06-12 23:30:00
8:00 AM,49,40,61,30.07,,ENE,15.0,,,,,60,2013-06-13 00:00:00
8:00 AM,48.2,39.2,71,30.06,-9999.0,ENE,15.0,-,N/A,,Clear,60,2013-06-13 00:00:00
8:30 AM,50.0,39.2,66,30.06,-9999.0,ENE,15.0,-,N/A,,Clear,60,2013-06-13 00:30:00
9:00 AM,53,41,53,30.08,19,ENE,11.5,,,,Partly Cloudy,60,2013-06-13 01:00:00
9:00 AM,53.6,41.0,62,30.06,-9999.0,ENE,11.5,-,N/A,,Clear,60,2013-06-13 01:00:00
9:30 AM,55.4,41.0,58,30.06,-9999.0,NE,10.4,-,N/A,,Clear,50,2013-06-13 01:30:00
10:00 AM,59.0,42.8,55,30.06,-9999.0,NNE,11.5,-,N/A,,Clear,30,2013-06-13 02:00:00
10:30 AM,60.8,44.6,55,30.06,-9999.0,NNE,12.7,-,N/A,,Clear,30,2013-06-13 02:30:00
11:00 AM,63,45,41,30.06,,NE,12.7,,,,,50,2013-06-13 03:00:00
11:00 AM,62.6,44.6,52,30.04,-9999.0,NE,12.7,-,N/A,,Clear,50,2013-06-13 03:00:00
11:30 AM,64.4,44.6,49,30.04,-9999.0,NE,15.0,-,N/A,,Clear,50,2013-06-13 03:30:00
12:00 PM,65,45,37,30.03,19,NE,12.7,,,,Partly Cloudy,40,2013-06-13 04:00:00
12:00 PM,66.2,44.6,46,30.01,-9999.0,NE,12.7,-,N/A,,Clear,40,2013-06-13 04:00:00
12:30 PM,66.2,44.6,46,30.01,-9999.0,NE,12.7,-,N/A,,Clear,40,2013-06-13 04:30:00
1:00 PM,68.0,44.6,43,30.01,-9999.0,NE,12.7,-,N/A,,Clear,40,2013-06-13 05:00:00
1:30 PM,68.0,46.4,46,29.98,-9999.0,NE,11.5,-,N/A,,Clear,50,2013-06-13 05:30:00
2:00 PM,68,46,33,29.99,,NNE,11.5,,,,,30,2013-06-13 06:00:00
2:00 PM,68.0,46.4,46,29.98,-9999.0,NNE,11.5,-,N/A,,Clear,30,2013-06-13 06:00:00
2:30 PM,69.8,46.4,43,29.98,-9999.0,ENE,12.7,-,N/A,,Clear,70,2013-06-13 06:30:00
3:00 PM,69,46,33,29.98,19,NE,11.5,,,,Partly Cloudy,40,2013-06-13 07:00:00
3:00 PM,69.8,46.4,43,29.98,-9999.0,NE,11.5,-,N/A,,Clear,40,2013-06-13 07:00:00
3:30 PM,69.8,46.4,43,29.98,-9999.0,ENE,11.5,-,N/A,,Clear,60,2013-06-13 07:30:00
4:00 PM,68.0,44.6,43,29.98,-9999.0,ENE,10.4,-,N/A,,Clear,60,2013-06-13 08:00:00
4:30 PM,68.0,44.6,43,29.98,-9999.0,ENE,10.4,-,N/A,,Clear,70,2013-06-13 08:30:00
5:00 PM,64,47,43,29.99,,East,8.1,,,,,80,2013-06-13 09:00:00
5:00 PM,64.4,46.4,52,29.98,-9999.0,East,8.1,-,N/A,,Clear,80,2013-06-13 09:00:00
5:30 PM,60.8,46.4,59,29.98,-9999.0,East,9.2,-,N/A,,Clear,90,2013-06-13 09:30:00
6:00 PM,59,47,53,30.00,19,East,8.1,,,,Partly Cloudy,100,2013-06-13 10:00:00
6:00 PM,59.0,46.4,63,29.98,-9999.0,East,8.1,-,N/A,,Clear,100,2013-06-13 10:00:00
6:30 PM,55.4,46.4,72,30.01,-9999.0,ESE,8.1,-,N/A,,Clear,110,2013-06-13 10:30:00
7:00 PM,57.2,44.6,63,30.01,-9999.0,ENE,8.1,-,N/A,,Clear,70,2013-06-13 11:00:00
7:30 PM,59.0,42.8,55,30.01,-9999.0,ENE,9.2,-,N/A,,Clear,60,2013-06-13 11:30:00
8:00 PM,59,42,43,30.01,,ENE,13.8,,,,,70,2013-06-13 12:00:00
8:00 PM,59.0,42.8,55,30.01,-9999.0,ENE,13.8,-,N/A,,Clear,70,2013-06-13 12:00:00
8:30 PM,59.0,41.0,51,30.01,-9999.0,East,16.1,-,N/A,,Clear,80,2013-06-13 12:30:00
9:00 PM,59,39,36,30.01,19,ENE,15.0,,,,Partly Cloudy,70,2013-06-13 13:00:00
9:00 PM,59.0,39.2,48,30.01,-9999.0,ENE,15.0,-,N/A,,Clear,70,2013-06-13 13:00:00
9:30 PM,59.0,37.4,45,30.01,-9999.0,ENE,16.1,-,N/A,,Clear,70,2013-06-13 13:30:00
10:00 PM,59.0,37.4,45,30.01,-9999.0,ENE,16.1,-,N/A,,Clear,70,2013-06-13 14:00:00
10:30 PM,57.2,37.4,48,30.01,-9999.0,ENE,13.8,-,N/A,,Clear,70,2013-06-13 14:30:00
11:00 PM,57,37,35,30.01,,ENE,15.0,,,,,70,2013-06-13 15:00:00
11:00 PM,57.2,37.4,48,30.01,-9999.0,ENE,15.0,-,N/A,,Clear,70,2013-06-13 15:00:00
11:30 PM,55.4,37.4,51,29.98,-9999.0,ENE,15.0,-,N/A,,Clear,60,2013-06-13 15:30:00